GIA72 WIII-WILL

Flight info

Callsign GIA72
Flight time 0h 24m
Altitude 14000
Route GUDBA
Aircraft B738/M-SDE2E3FGHIRWXY/LB1

Departure

Time 2026-05-09 01:07
Airport Soekarno-Hatta International Airport (WIII)

Arrival

Time 2026-05-09 01:31
Airport Radin Inten II International Airport (WILL)
Time Latitude Longitude Altitude Speed Heading
2026-05-09 00:54 -6.11593 106.66847 25 ft 0 kts 175°
2026-05-09 00:59 -6.11591 106.66847 25 ft 1 kts 175°
2026-05-09 00:59 -6.11576 106.66846 25 ft 2 kts 175°
2026-05-09 00:59 -6.11561 106.66845 25 ft 2 kts 175°
2026-05-09 00:59 -6.11548 106.66843 25 ft 0 kts 175°
2026-05-09 01:00 -6.11537 106.66842 25 ft 2 kts 147°
2026-05-09 01:00 -6.11528 106.66830 25 ft 2 kts 105°
2026-05-09 01:00 -6.11527 106.66819 25 ft 0 kts 73°
2026-05-09 01:00 -6.11530 106.66813 25 ft 1 kts 69°
2026-05-09 01:01 -6.11530 106.66812 25 ft 0 kts 69°
2026-05-09 01:02 -6.11530 106.66813 25 ft 1 kts 69°
2026-05-09 01:02 -6.11519 106.66841 25 ft 7 kts 70°
2026-05-09 01:02 -6.11496 106.66901 25 ft 10 kts 68°
2026-05-09 01:03 -6.11463 106.66959 24 ft 8 kts 26°
2026-05-09 01:03 -6.11406 106.66946 24 ft 8 kts 339°
2026-05-09 01:03 -6.11339 106.66920 23 ft 11 kts 339°
2026-05-09 01:03 -6.11266 106.66887 23 ft 12 kts 327°
2026-05-09 01:04 -6.11184 106.66859 22 ft 13 kts 337°
2026-05-09 01:04 -6.11117 106.66856 22 ft 7 kts 45°
2026-05-09 01:04 -6.11090 106.66913 22 ft 9 kts 68°
2026-05-09 01:04 -6.11063 106.66967 22 ft 8 kts 50°
2026-05-09 01:05 -6.11041 106.66982 22 ft 2 kts 26°
2026-05-09 01:05 -6.11024 106.66988 22 ft 2 kts
2026-05-09 01:05 -6.10941 106.66927 22 ft 8 kts 307°
2026-05-09 01:06 -6.10913 106.66878 22 ft 7 kts 276°
2026-05-09 01:06 -6.10920 106.66847 22 ft 0 kts 247°
2026-05-09 01:06 -6.10931 106.66818 22 ft 22 kts 248°
2026-05-09 01:06 -6.11104 106.66388 24 ft 106 kts 248°
2026-05-09 01:07 -6.11470 106.65477 85 ft 166 kts 246°
2026-05-09 01:07 -6.11939 106.64386 684 ft 181 kts 246°
2026-05-09 01:07 -6.12386 106.63196 1389 ft 187 kts 256°
2026-05-09 01:07 -6.12286 106.61874 1875 ft 198 kts 292°
2026-05-09 01:08 -6.11751 106.60545 2292 ft 215 kts 291°
2026-05-09 01:08 -6.11259 106.59051 2666 ft 237 kts 289°
2026-05-09 01:08 -6.10740 106.57390 2698 ft 257 kts 289°
2026-05-09 01:08 -6.10210 106.55681 2690 ft 257 kts 288°
2026-05-09 01:09 -6.09648 106.53874 2960 ft 278 kts 288°
2026-05-09 01:09 -6.09087 106.52062 3923 ft 274 kts 288°
2026-05-09 01:09 -6.08514 106.50215 4671 ft 280 kts 289°
2026-05-09 01:09 -6.07947 106.48528 5396 ft 282 kts 294°
2026-05-09 01:10 -6.07068 106.46763 6156 ft 285 kts 301°
2026-05-09 01:10 -6.06088 106.45026 6952 ft 287 kts 301°
2026-05-09 01:10 -6.05106 106.43282 7712 ft 292 kts 301°
2026-05-09 01:10 -6.04111 106.41500 8483 ft 295 kts 300°
2026-05-09 01:11 -6.03110 106.39700 9299 ft 298 kts 300°
2026-05-09 01:11 -6.02106 106.37891 10071 ft 302 kts 300°
2026-05-09 01:11 -6.01064 106.36015 10709 ft 313 kts 300°
2026-05-09 01:11 -5.99977 106.34058 11301 ft 325 kts 300°
2026-05-09 01:12 -5.98867 106.32059 11858 ft 337 kts 300°
2026-05-09 01:12 -5.97706 106.29967 12490 ft 346 kts 300°
2026-05-09 01:12 -5.96540 106.27869 13368 ft 345 kts 300°
2026-05-09 01:12 -5.95354 106.25732 13782 ft 351 kts 300°
2026-05-09 01:13 -5.94228 106.23704 13868 ft 351 kts 300°
2026-05-09 01:13 -5.93049 106.21581 13879 ft 345 kts 300°
2026-05-09 01:13 -5.91868 106.19452 13884 ft 343 kts 300°
2026-05-09 01:13 -5.90705 106.17355 13882 ft 344 kts 300°
2026-05-09 01:14 -5.89537 106.15253 13883 ft 344 kts 300°
2026-05-09 01:14 -5.88373 106.13155 13881 ft 342 kts 300°
2026-05-09 01:14 -5.87241 106.11118 13883 ft 343 kts 300°
2026-05-09 01:14 -5.86074 106.09018 13884 ft 344 kts 300°
2026-05-09 01:15 -5.84918 106.06937 13884 ft 343 kts 300°
2026-05-09 01:15 -5.83743 106.04821 13883 ft 343 kts 300°
2026-05-09 01:15 -5.82582 106.02732 13885 ft 343 kts 300°
2026-05-09 01:15 -5.81425 106.00649 13884 ft 343 kts 300°
2026-05-09 01:16 -5.80247 105.98530 13886 ft 343 kts 300°
2026-05-09 01:16 -5.79088 105.96446 13887 ft 344 kts 300°
2026-05-09 01:16 -5.77925 105.94352 13887 ft 341 kts 300°
2026-05-09 01:17 -5.75689 105.90328 13891 ft 317 kts 300°
2026-05-09 01:17 -5.74611 105.88389 13706 ft 324 kts 300°
2026-05-09 01:17 -5.73503 105.86397 13269 ft 329 kts 300°
2026-05-09 01:17 -5.72388 105.84392 12832 ft 328 kts 300°
2026-05-09 01:18 -5.71279 105.82399 12398 ft 327 kts 300°
2026-05-09 01:18 -5.70167 105.80399 11966 ft 326 kts 300°
2026-05-09 01:18 -5.69065 105.78418 11577 ft 323 kts 300°
2026-05-09 01:18 -5.67990 105.76485 11212 ft 314 kts 300°
2026-05-09 01:19 -5.66941 105.74597 10821 ft 312 kts 300°
2026-05-09 01:19 -5.65875 105.72682 10396 ft 311 kts 300°
2026-05-09 01:19 -5.64830 105.70804 10008 ft 309 kts 300°
2026-05-09 01:19 -5.63794 105.68942 9838 ft 299 kts 300°
2026-05-09 01:20 -5.62781 105.67120 9481 ft 298 kts 300°
2026-05-09 01:20 -5.61762 105.65290 9051 ft 298 kts 301°
2026-05-09 01:20 -5.60758 105.63488 8671 ft 298 kts 301°
2026-05-09 01:20 -5.59750 105.61678 8286 ft 293 kts 300°
2026-05-09 01:21 -5.58765 105.59906 7927 ft 285 kts 301°
2026-05-09 01:21 -5.57823 105.58213 7580 ft 274 kts 301°
2026-05-09 01:21 -5.56914 105.56578 7226 ft 263 kts 301°
2026-05-09 01:21 -5.56030 105.55022 7005 ft 248 kts 303°
2026-05-09 01:22 -5.55139 105.53599 6995 ft 232 kts 305°
2026-05-09 01:22 -5.54272 105.52245 6889 ft 229 kts 305°
2026-05-09 01:22 -5.53409 105.50887 6641 ft 233 kts 304°
2026-05-09 01:22 -5.52546 105.49521 6351 ft 230 kts 305°
2026-05-09 01:23 -5.51699 105.48179 6060 ft 227 kts 305°
2026-05-09 01:23 -5.50854 105.46841 5769 ft 226 kts 305°
2026-05-09 01:23 -5.50009 105.45504 5478 ft 225 kts 305°
2026-05-09 01:23 -5.49168 105.44172 5187 ft 223 kts 305°
2026-05-09 01:24 -5.48338 105.42858 4902 ft 223 kts 304°
2026-05-09 01:24 -5.47512 105.41550 4618 ft 222 kts 304°
2026-05-09 01:24 -5.46693 105.40251 4336 ft 220 kts 305°
2026-05-09 01:24 -5.45876 105.38958 4056 ft 217 kts 305°
2026-05-09 01:25 -5.45078 105.37694 3874 ft 209 kts 304°
2026-05-09 01:25 -5.44309 105.36476 3808 ft 204 kts 305°
2026-05-09 01:25 -5.43572 105.35312 3751 ft 208 kts 304°
2026-05-09 01:25 -5.42803 105.34095 3683 ft 207 kts 305°
2026-05-09 01:26 -5.41954 105.32935 3567 ft 202 kts 317°
2026-05-09 01:26 -5.40889 105.32020 3328 ft 200 kts 323°
2026-05-09 01:26 -5.39830 105.31143 3142 ft 193 kts 323°
2026-05-09 01:26 -5.38811 105.30278 3009 ft 190 kts 322°
2026-05-09 01:27 -5.37793 105.29416 2871 ft 191 kts 322°
2026-05-09 01:27 -5.36792 105.28566 2734 ft 183 kts 322°
2026-05-09 01:27 -5.35854 105.27767 2598 ft 169 kts 322°
2026-05-09 01:27 -5.34985 105.27029 2423 ft 157 kts 322°
2026-05-09 01:28 -5.34176 105.26341 2262 ft 146 kts 322°
2026-05-09 01:28 -5.33417 105.25696 2136 ft 142 kts 322°
2026-05-09 01:28 -5.32659 105.25053 1991 ft 144 kts 322°
2026-05-09 01:28 -5.31887 105.24392 1803 ft 142 kts 322°
2026-05-09 01:29 -5.31132 105.23759 1648 ft 142 kts 323°
2026-05-09 01:29 -5.30375 105.23093 1485 ft 144 kts 321°
2026-05-09 01:29 -5.29619 105.22443 1282 ft 143 kts 321°
2026-05-09 01:29 -5.28864 105.21792 1111 ft 142 kts 322°
2026-05-09 01:30 -5.28094 105.21153 931 ft 142 kts 322°
2026-05-09 01:30 -5.27338 105.20511 756 ft 141 kts 321°
2026-05-09 01:30 -5.26593 105.19878 582 ft 140 kts 322°
2026-05-09 01:30 -5.25849 105.19254 366 ft 139 kts 321°
2026-05-09 01:31 -5.25112 105.18637 273 ft 126 kts 321°
2026-05-09 01:31 -5.24606 105.18209 272 ft 66 kts 320°
2026-05-09 01:31 -5.24358 105.17999 277 ft 26 kts 321°
2026-05-09 01:31 -5.24293 105.17918 278 ft 9 kts 266°
2026-05-09 01:32 -5.24317 105.17880 278 ft 3 kts 227°
2026-05-09 01:32 -5.24335 105.17861 278 ft 3 kts 227°
2026-05-09 01:32 -5.24336 105.17833 278 ft 7 kts 313°
2026-05-09 01:32 -5.24287 105.17790 279 ft 8 kts 319°
2026-05-09 01:33 -5.24247 105.17756 279 ft 5 kts 319°
2026-05-09 01:33 -5.24227 105.17735 280 ft 3 kts 289°
2026-05-09 01:33 -5.24228 105.17708 280 ft 4 kts 247°
2026-05-09 01:33 -5.24238 105.17695 280 ft 1 kts 230°
2026-05-09 01:34 -5.24246 105.17686 281 ft 1 kts 230°
2026-05-09 01:34 -5.24252 105.17678 281 ft 0 kts 230°